Regional Weather Roundup
Issued by NWS

Home | Current Version | Previous Version | Text Only | Print | Product List | Glossary On
Versions: 1 2 3 4 5 6 7 8 9 10 11 12 13 14 15 16 17 18 19 20 21 22 23 24 25 26 27 28 29 30 31 32 33 34 35 36 37 38 39 40 41 42 43 44 45 46 47 48 49 50
054
ASUS43 KLSX 111207
RWRMO

WEATHER SUMMARY FOR MISSOURI
NATIONAL WEATHER SERVICE SPRINGFIELD MO
600 AM CST MON DEC 11 2017

NOTE: "FAIR" INDICATES FEW OR NO CLOUDS BELOW 12,000 FEET WITH NO
       SIGNIFICANT WEATHER AND/OR OBSTRUCTIONS TO VISIBILITY.
       CURRENT SKY AND/OR WEATHER CONDITIONS ARE NOT AVAILABLE FOR
       CHILLICOTHE AND FARMINGTON.

MOZ001>031-035>038-043-044-053-054-111300-
...NORTHERN AND WESTERN MISSOURI...

CITY           SKY/WX    TMP DP  RH WIND       PRES   REMARKS
KANSAS CTY INT CLEAR     36  19  50 SW10      29.95F WCI  28
6HR MIN TEMP:  31; 6HR MAX TEMP:  38;

KANSAS C DTWN  CLEAR     34  21  59 S9        29.97F WCI  27
6HR MIN TEMP:  31; 6HR MAX TEMP:  39;

LEE`S SUMMIT   CLEAR     40  20  44 SW12      29.98F
6HR MIN TEMP:  38; 6HR MAX TEMP:  44;

ST JOSEPH      PTCLDY    31  24  75 S5        29.94F WCI  26
6HR MIN TEMP:  23; 6HR MAX TEMP:  31;

CHILLICOTHE      N/A     36  25  64 S8        29.90F WCI  30
6HR MIN TEMP:  25; 6HR MAX TEMP:  36;

KIRKSVILLE     PTCLDY    32  28  85 S5        29.89F WCI  27
6HR MIN TEMP:  30; 6HR MAX TEMP:  35;


$$
MOZ066>068-077>081-088>096-101>105-111300-
...SOUTHWEST MISSOURI...

CITY           SKY/WX    TMP DP  RH WIND       PRES   REMARKS
SPRINGFIELD    CLEAR     32  22  66 SW12      30.05F WCI  23
6HR MIN TEMP:  30; 6HR MAX TEMP:  40;

JOPLIN         CLEAR     40  24  53 SW9       30.09F
6HR MIN TEMP:  34; 6HR MAX TEMP:  43;


$$
MOZ032>034-039>042-045>050-055>058-069>072-111300-
...CENTRAL MISSOURI...

CITY           SKY/WX    TMP DP  RH WIND       PRES   REMARKS
COLUMBIA       CLEAR     32  25  75 S9        29.96F WCI  24
6HR MIN TEMP:  31; 6HR MAX TEMP:  39;

JEFFERSON CITY CLEAR     31  24  75 E8        30.00F WCI  23
6HR MIN TEMP:  25; 6HR MAX TEMP:  34;

ROLLA          PTCLDY    36  24  62 SW12      30.02F WCI  28
6HR MIN TEMP:  29; 6HR MAX TEMP:  38;

SEDALIA        CLEAR     41  25  53 SW17      29.98F
6HR MIN TEMP:  37; 6HR MAX TEMP:  41;

WHITEMAN AFB   CLEAR     37  22  56 SW12      29.94F WCI  29
WARRENSBURG    CLEAR     34  23  64 S9        29.98F WCI  26
OSAGE BEACH    CLEAR     30  24  78 CALM      30.02F

$$
MOZ051-052-059>065-111300-
...EAST CENTRAL MISSOURI...

CITY           SKY/WX    TMP DP  RH WIND       PRES   REMARKS
ST LOUIS INTL  CLOUDY    33  27  78 SE5       30.03F WCI  29
6HR MIN TEMP:  29; 6HR MAX TEMP:  36;

SPIRIT OF STL  PTCLDY    26  23  88 CALM      30.02F
6HR MIN TEMP:  23; 6HR MAX TEMP:  27;

ST CHARLES     CLOUDY    26  24  92 E6        30.02F WCI  19
6HR MIN TEMP:  23; 6HR MAX TEMP:  27;


$$
MOZ072>076-082>087-097>100-106>115-111300-
...SOUTH CENTRAL AND SOUTHEAST MISSOURI...

CITY           SKY/WX    TMP DP  RH WIND       PRES   REMARKS
CAPE GIRARDEAU CLEAR     26  24  92 CALM      30.10S
6HR MIN TEMP:  23; 6HR MAX TEMP:  29;

FARMINGTON     PTCLDY    28  24  85 CALM      30.06F
6HR MIN TEMP:  27; 6HR MAX TEMP:  42;

POPLAR BLUFF   CLEAR     29  25  85 CALM      30.11F
6HR MIN TEMP:  27; 6HR MAX TEMP:  31;

WEST PLAINS    CLEAR     33  23  66 SW7       30.09F WCI  27
6HR MIN TEMP:  33; 6HR MAX TEMP:  40;


$$



USA.gov is the U.S. government's official web portal to all federal, state and local government web resources and services.